ONEWEB-0198, 48216

Orbit data source: Space-Track

ONEWEB-0198, 48216 is a payload satellite owned by One Web (NAA) (UK) in LEO that was launched on Sun, 25 Apr 2021 UTC via a SOYUZ-2-1B launch vehicle from the Vostochny Cosmodrome (VOSTO). Payload-class satellites include a variety of spacecraft equipped with specific instruments for various scientific and technological missions. These include communications satellites like Starlink; space stations such as the ISS; scientific satellites like the Hubble; Earth observation satellites from companies like Planet Labs, Umbra, and HawkEye 360; GPS; miniature CubeSats for education and research; and military/defense satellites.

Loading next visibility...
Identifier
48216, 2021-031G
Orbit
LEO
Country
Flag of UKUK
Related business
Manufacturer
One Web
Mission
Operational Commercial Communications
Bus & Motor
ARROW, Unknown motor
Mass
148 kg wet, ~140 kg dry
Launch date (UTC)
2021-04-25 (5 years ago)
Launch vehicle
SOYUZ-2-1B
Launch site
Vostochny Cosmodrome (VOSTO)
Object type
Payload
Rocket body
Debris
Shape & HBR
Trap Box + 2 Pan, 6.7 m
Radar Cross Section
3.464 m², Large (>1 m²)

Expand to show TLE details & history
Last TLE update: 1 day ago

TLE from 1 day ago
0 ONEWEB-0198
1 48216U 21031G   25305.55839953 -.00000012  00000-0 -68136-4 0  9993
2 48216  87.9011 335.0702 0002324  90.9591 269.1805 13.14500309218584
Epoch: 2025-11-01T13:24Z
TLE epoch observation values (Epoch: 2025-11-01T13:24:05.719Z)
Latitude
-0.00002°
Longitude
92.95962°
Altitude
1,208.719 km
Speed
7.25 km/s
True Right ascension
22h 20m 16s
True Declination
0° 00' 00"
Sunlit
Object was in daylight at epoch
Visualization orbit readout
Latitude
Unknown
Longitude
Unknown
Altitude
Unknown
Speed
Unknown
Apparent Right ascension
Unknown
Apparent Declination
Unknown
Sunlit
N/A
Visualization observer readout
Local Sidereal Time
09:11:40
Azimuth
Unknown
Elevation
Unknown
Doppler factor
Unknown
Orbital elements
Apogee altitude
1,204.675 km
Perigee altitude
1,201.152 km
Semi-major axis
7,581.05 km
Eccentricity
0.00023
Inclination
87.9011°
RAAN
335.0702°
Arg. of periapsis
90.9591°
True anomaly
269.15387°
Mean anomaly
269.1805°
Eccentric anomaly
269.16719°
Mean motion
3.28813 °/min
Orbital period
109.48 mins
BSTAR
-0.000068136
Loading maneuver chart data...
Computing Atmospheric mass density...
Loading historical data...
Loading historical data...
Loading historical data...
Loading historical data...
Loading historical data...
Loading historical data...
Loading historical data...

Documentation

Showing up to 5 results
|